Regional Weather Roundup
Issued by NWS

Home | Current Version | Previous Version | Text Only | Print | Product List | Glossary Off
Versions: 1 2 3 4 5 6 7 8 9 10 11 12 13 14 15 16 17 18 19 20 21 22 23 24 25 26 27 28 29 30 31 32 33 34 35 36 37 38 39 40 41 42 43 44 45 46 47 48 49 50

359
ASUS43 KLSX 201057
RWRMO

WEATHER SUMMARY FOR MISSOURI
NATIONAL WEATHER SERVICE SPRINGFIELD MO
500 AM CST SAT JAN 20 2018

NOTE: "FAIR" INDICATES FEW OR NO CLOUDS BELOW 12,000 FEET WITH NO
       SIGNIFICANT WEATHER AND/OR OBSTRUCTIONS TO VISIBILITY.
       CURRENT SKY AND/OR WEATHER CONDITIONS ARE NOT AVAILABLE FOR
       CHILLICOTHE AND FARMINGTON.

MOZ001>031-035>038-043-044-053-054-201200-
...NORTHERN AND WESTERN MISSOURI...

CITY           SKY/WX    TMP DP  RH WIND       PRES   REMARKS
KANSAS CTY INT CLOUDY    44  39  82 SW13      29.86R
KANSAS C DTWN  CLOUDY    45  39  79 SW12      29.87R
LEE`S SUMMIT   CLOUDY    45  42  89 SW18G29   29.87S
ST JOSEPH      CLOUDY    35  33  92 S5        29.86R
CHILLICOTHE      N/A     37  32  82 S6        29.88R

$$
MOZ066>068-077>081-088>096-101>105-201200-
...SOUTHWEST MISSOURI...

CITY           SKY/WX    TMP DP  RH WIND       PRES   REMARKS
SPRINGFIELD    CLOUDY    50  44  80 SW17      29.95S
JOPLIN         CLOUDY    50  46  86 S21G31    29.92S

$$
MOZ032>034-039>042-045>050-055>058-069>072-201200-
...CENTRAL MISSOURI...

CITY           SKY/WX    TMP DP  RH WIND       PRES   REMARKS
COLUMBIA       CLOUDY    36  31  82 S6        29.92S
JEFFERSON CITY CLOUDY    39  32  76 E5        29.94F
ROLLA          CLOUDY    38  34  85 S14       29.96S WCI  30
SEDALIA        PTCLDY    42  40  92 S10       29.91S
WARRENSBURG    CLOUDY    39  36  87 S7        29.89S

$$
MOZ051-052-059>065-201200-
...EAST CENTRAL MISSOURI...

CITY           SKY/WX    TMP DP  RH WIND       PRES   REMARKS
ST LOUIS INTL  CLOUDY    33  28  81 SE6       29.98S WCI  28
SPIRIT OF STL  CLOUDY    41  32  70 SW10      29.97S
ST CHARLES     PTCLDY    28  25  88 SE5       29.97S WCI  23

$$
MOZ072>076-082>087-097>100-106>115-201200-
...SOUTH CENTRAL AND SOUTHEAST MISSOURI...

CITY           SKY/WX    TMP DP  RH WIND       PRES   REMARKS
CAPE GIRARDEAU FAIR      32  24  72 S7        30.10S WCI  26
POPLAR BLUFF   FAIR      35  26  69 SW5       30.09R
WEST PLAINS    CLOUDY    38  28  67 S7        30.02R

$$



USA.gov is the U.S. government's official web portal to all federal, state and local government web resources and services.